CW2969 Weather Reports


Display with metric or nautical units.
time (UTC)temp
F
wind
direction
speed
MPH
gust
MPH
rain 1hr
in
rain 24hr
in
rain mn
in
humidity
%
barometer
mb
20260903180504 95 194 2.0 8.0 0.00 0.00 0.00 56 1011.6
20260903180004 94 107 4.0 5.0 0.00 0.00 0.00 57 1011.7
20260903175504 95 244 4.0 5.0 0.00 0.00 0.00 56 1011.7
20260903175004 94 169 1.0 11.0 0.00 0.00 0.00 57 1011.8
20260903174504 94 155 8.0 11.0 0.00 0.00 0.00 57 1011.8
20260903174004 94 205 4.0 5.0 0.00 0.00 0.00 59 1011.8
20260903173504 94 270 2.0 9.0 0.00 0.00 0.00 59 1011.9
20260903173004 94 104 8.0 9.0 0.00 0.00 0.00 59 1011.9
20260903172504 94 290 2.0 7.0 0.00 0.00 0.00 60 1012.0
20260903172004 93 134 4.0 4.0 0.00 0.00 0.00 61 1012.0
20260903171503 93 325 2.0 9.0 0.00 0.00 0.00 61 1012.2
20260903171003 93 180 5.0 10.0 0.00 0.00 0.00 61 1012.2
20260903170033 92 216 4.0 17.0 0.00 0.00 0.00 62 1012.2
20260903165503 92 233 2.0 5.0 0.00 0.00 0.00 63 1012.3
20260903165003 92 115 4.0 10.0 0.00 0.00 0.00 63 1012.3
20260903164503 92 252 4.0 10.0 0.00 0.00 0.00 63 1012.4
20260903164004 91 148 4.0 8.0 0.00 0.00 0.00 64 1012.4
20260903163533 91 239 3.0 8.0 0.00 0.00 0.00 64 1012.4
20260903163033 91 171 2.0 8.0 0.00 0.00 0.00 65 1012.5
20260903162033 90 205 1.0 8.0 0.00 0.00 0.00 67 1012.5
20260903161033 90 292 3.0 10.0 0.00 0.00 0.00 68 1012.6
20260903160533 90 119 2.0 8.0 0.00 0.00 0.00 69 1012.4
20260903160033 89 281 0.0 6.0 0.00 0.00 0.00 69 1012.3
20260903155533 89 209 2.0 6.0 0.00 0.00 0.00 69 1012.4
20260903154533 88 254 1.0 7.0 0.00 0.00 0.00 70 1012.5
20260903154032 88 223 3.0 11.0 0.00 0.00 0.00 71 1012.4
20260903153532 87 196 3.0 11.0 0.00 0.00 0.00 72 1012.4
20260903152032 86 171 2.0 5.0 0.00 0.00 0.00 73 1012.4
20260903151532 86 274 3.0 5.0 0.00 0.00 0.00 74 1012.5
20260903151032 86 293 1.0 7.0 0.00 0.00 0.00 74 1012.5
20260903150532 86 135 3.0 12.0 0.00 0.00 0.00 73 1012.4
20260903150032 86 234 5.0 12.0 0.00 0.00 0.00 73 1012.4
20260903145532 86 306 3.0 8.0 0.00 0.00 0.00 74 1012.4
20260903145032 86 187 2.0 7.0 0.00 0.00 0.00 74 1012.4
20260903144532 86 267 4.0 7.0 0.00 0.00 0.00 74 1012.4
20260903144032 86 28 3.0 7.0 0.00 0.00 0.00 75 1012.4
20260903143532 86 162 4.0 7.0 0.00 0.00 0.00 75 1012.3
20260903143032 86 212 4.0 9.0 0.00 0.00 0.00 75 1012.3
20260903142532 85 171 5.0 9.0 0.00 0.00 0.00 75 1012.2
20260903142031 85 270 2.0 7.0 0.00 0.00 0.00 76 1012.3
20260903141532 85 236 2.0 13.0 0.00 0.00 0.00 76 1012.3
20260903141031 85 226 5.0 13.0 0.00 0.00 0.00 76 1012.4
20260903140531 84 309 2.0 10.0 0.00 0.00 0.00 77 1012.4
20260903140031 84 128 2.0 5.0 0.00 0.00 0.00 77 1012.4
20260903135031 84 269 1.0 7.0 0.00 0.00 0.00 78 1012.5
20260903134531 84 307 2.0 9.0 0.00 0.00 0.00 78 1012.5
20260903134031 84 159 5.0 9.0 0.00 0.00 0.00 78 1012.5
20260903133031 83 236 3.0 7.0 0.00 0.00 0.00 79 1012.5
20260903132531 83 228 2.0 7.0 0.00 0.00 0.00 79 1012.6
20260903132031 83 130 3.0 7.0 0.00 0.00 0.00 79 1012.6
20260903131531 83 212 0.0 4.0 0.00 0.00 0.00 80 1012.5
20260903131031 83 201 2.0 5.0 0.00 0.00 0.00 79 1012.5
20260903130531 83 226 4.0 5.0 0.00 0.00 0.00 80 1012.5
20260903130031 82 247 1.0 5.0 0.00 0.00 0.00 80 1012.5
20260903125531 82 200 2.0 5.0 0.00 0.00 0.00 80 1012.5
20260903124530 82 150 0.0 5.0 0.00 0.00 0.00 80 1012.4
20260903124031 82 184 3.0 5.0 0.00 0.00 0.00 80 1012.3
20260903123531 82 223 2.0 3.0 0.00 0.00 0.00 80 1012.3
20260903123030 82 161 2.0 3.0 0.00 0.00 0.00 80 1012.2
20260903122530 82 240 2.0 5.0 0.00 0.00 0.00 80 1012.2
20260903122031 82 199 3.0 5.0 0.00 0.00 0.00 80 1012.2
20260903121031 82 228 3.0 6.0 0.00 0.00 0.00 80 1012.0
20260903120530 82 176 0.0 6.0 0.00 0.00 0.00 80 1012.1
20260903120030 82 205 2.0 6.0 0.00 0.00 0.00 80 1012.1
20260903115530 82 283 2.0 4.0 0.00 0.00 0.00 80 1012.1
20260903115030 82 212 1.0 5.0 0.00 0.00 0.00 80 1012.1
20260903114530 82 159 4.0 5.0 0.00 0.00 0.00 80 1012.1
20260903114030 82 210 2.0 6.0 0.00 0.00 0.00 80 1012.0
20260903113530 82 296 1.0 6.0 0.00 0.00 0.00 80 1011.9
20260903112530 82 208 3.0 5.0 0.00 0.00 0.00 80 1011.9
20260903112030 82 205 3.0 5.0 0.00 0.00 0.00 80 1011.9
20260903111530 82 210 0.0 4.0 0.00 0.00 0.00 80 1011.9
20260903111030 82 169 4.0 4.0 0.00 0.00 0.00 80 1011.9
20260903110030 82 292 0.0 5.0 0.00 0.00 0.00 80 1012.0
20260903105530 82 143 3.0 5.0 0.00 0.00 0.00 80 1012.0
20260903105030 82 180 3.0 5.0 0.00 0.00 0.00 80 1011.9
20260903104530 82 234 4.0 5.0 0.00 0.00 0.00 80 1011.9
20260903104029 82 211 2.0 7.0 0.00 0.00 0.00 80 1011.8
20260903103529 82 148 1.0 7.0 0.00 0.00 0.00 80 1011.7
20260903103029 82 125 0.0 7.0 0.00 0.00 0.00 80 1011.7
20260903102529 82 162 1.0 7.0 0.00 0.00 0.00 80 1011.7
20260903102029 82 198 3.0 4.0 0.00 0.00 0.00 80 1011.8
20260903100529 82 130 3.0 4.0 0.00 0.00 0.00 80 1011.7
20260903100029 82 203 2.0 4.0 0.00 0.00 0.00 80 1011.7
20260903095029 82 165 1.0 4.0 0.00 0.00 0.00 80 1011.8
20260903094529 82 194 3.0 4.0 0.00 0.00 0.00 80 1011.9
20260903094029 82 259 1.0 4.0 0.00 0.00 0.00 80 1011.9
20260903093529 82 120 2.0 4.0 0.00 0.00 0.00 80 1011.9
20260903093029 82 159 0.0 4.0 0.00 0.00 0.00 80 1012.0
20260903092029 82 209 2.0 3.0 0.00 0.00 0.00 79 1012.0
20260903091529 82 202 1.0 2.0 0.00 0.00 0.00 79 1012.1
20260903091030 82 165 0.0 3.0 0.00 0.00 0.00 79 1011.9
20260903090529 82 209 2.0 7.0 0.00 0.00 0.00 79 1012.1
20260903090028 82 129 7.0 7.0 0.00 0.00 0.00 79 1012.1
20260903085528 82 208 4.0 6.0 0.00 0.00 0.00 79 1012.1
20260903085028 82 202 1.0 5.0 0.00 0.00 0.00 79 1012.1
20260903084528 82 203 3.0 5.0 0.00 0.00 0.00 78 1012.1
20260903084028 82 50 2.0 7.0 0.00 0.00 0.00 78 1012.0
20260903083528 82 161 1.0 7.0 0.00 0.00 0.00 78 1012.0
20260903083028 82 169 1.0 3.0 0.00 0.00 0.00 78 1012.0
20260903082528 83 213 1.0 6.0 0.00 0.00 0.00 78 1012.0
20260903082028 83 241 2.0 6.0 0.00 0.00 0.00 78 1012.0
20260903081528 83 226 0.0 7.0 0.00 0.00 0.00 78 1012.0
20260903081028 83 113 0.0 7.0 0.00 0.00 0.00 77 1011.9
20260903080528 83 236 1.0 5.0 0.00 0.00 0.00 77 1012.0
20260903080028 83 217 4.0 5.0 0.00 0.00 0.00 77 1012.1
20260903074528 83 170 0.0 5.0 0.00 0.00 0.00 76 1012.2
20260903074028 83 128 0.0 5.0 0.00 0.00 0.00 76 1012.2
20260903073528 83 169 0.0 8.0 0.00 0.00 0.00 75 1012.3
20260903073027 83 141 1.0 8.0 0.00 0.00 0.00 75 1012.3
20260903072527 83 207 2.0 4.0 0.00 0.00 0.00 75 1012.3
20260903072027 83 155 0.0 4.0 0.00 0.00 0.00 75 1012.3
20260903071527 83 209 4.0 4.0 0.00 0.00 0.00 74 1012.3
20260903071027 84 173 3.0 7.0 0.00 0.00 0.00 74 1012.3
20260903070527 84 206 2.0 7.0 0.00 0.00 0.00 74 1012.4
20260903070027 84 135 2.0 4.0 0.00 0.00 0.00 73 1012.3
20260903065527 84 223 1.0 5.0 0.00 0.00 0.00 73 1012.4
20260903064527 84 107 4.0 5.0 0.00 0.00 0.00 72 1012.4
20260903063527 84 190 0.0 7.0 0.00 0.00 0.00 71 1012.5
20260903063027 84 132 1.0 7.0 0.00 0.00 0.00 71 1012.5
20260903062527 84 111 1.0 6.0 0.00 0.00 0.00 71 1012.5
20260903062027 85 222 3.0 6.0 0.00 0.00 0.00 70 1012.4
20260903061527 85 132 1.0 4.0 0.00 0.00 0.00 70 1012.4
20260903061026 85 134 4.0 4.0 0.00 0.00 0.00 69 1012.4
20260903060526 85 190 2.0 4.0 0.00 0.00 0.00 68 1012.4
20260903060027 85 132 3.0 5.0 0.00 0.00 0.00 68 1012.4
20260903055526 85 232 1.0 5.0 0.00 0.00 0.00 67 1012.5
20260903055026 85 261 2.0 4.0 0.00 0.00 0.00 66 1012.5
20260903054526 85 131 0.0 8.0 0.00 0.00 0.00 66 1012.4
20260903054026 85 109 4.0 9.0 0.00 0.00 0.00 65 1012.5
20260903053526 86 148 6.0 10.0 0.00 0.00 0.00 65 1012.4
20260903053026 86 144 2.0 10.0 0.00 0.00 0.00 64 1012.4
20260903052526 86 113 6.0 10.0 0.00 0.00 0.00 63 1012.3
20260903052026 86 134 5.0 18.0 0.00 0.00 0.00 63 1012.3
20260903051026 86 267 2.0 13.0 0.00 0.00 0.00 61 1012.3
20260903050526 86 149 3.0 8.0 0.00 0.00 0.00 60 1012.4
20260903045526 87 154 4.0 6.0 0.00 0.00 0.00 59 1012.4
20260903045026 87 141 2.0 8.0 0.00 0.00 0.00 59 1012.3
20260903044526 87 105 8.0 9.0 0.00 0.00 0.00 58 1012.3
20260903044026 87 125 3.0 9.0 0.00 0.00 0.00 58 1012.2
20260903043526 87 103 2.0 7.0 0.00 0.00 0.00 58 1012.1
20260903043026 87 121 4.0 12.0 0.00 0.00 0.00 58 1012.1
20260903042525 87 128 12.0 12.0 0.00 0.00 0.00 58 1012.1
20260903042025 87 114 3.0 5.0 0.00 0.00 0.00 59 1011.9
20260903041025 88 250 0.0 10.0 0.00 0.00 0.00 60 1011.9
20260903040525 88 130 2.0 10.0 0.00 0.00 0.00 60 1012.0
20260903040025 88 105 4.0 8.0 0.00 0.00 0.00 59 1012.0
20260903035525 88 126 5.0 8.0 0.00 0.00 0.00 59 1011.9
20260903035025 88 182 2.0 10.0 0.00 0.00 0.00 58 1011.9
20260903034525 89 108 10.0 10.0 0.00 0.00 0.00 58 1011.9
20260903034025 89 107 2.0 10.0 0.00 0.00 0.00 58 1011.8
20260903033525 89 90 4.0 11.0 0.00 0.00 0.00 57 1011.9
20260903032525 90 169 7.0 13.0 0.00 0.00 0.00 56 1011.9
20260903032025 90 128 3.0 13.0 0.00 0.00 0.00 55 1011.8
20260903031524 90 130 9.0 13.0 0.00 0.00 0.00 55 1011.8
20260903031025 90 109 2.0 7.0 0.00 0.00 0.00 54 1011.6
20260903030525 90 206 4.0 7.0 0.00 0.00 0.00 53 1011.6
20260903030024 90 132 4.0 7.0 0.00 0.00 0.00 53 1011.4
20260903025525 90 94 1.0 3.0 0.00 0.00 0.00 53 1011.1
20260903025024 90 74 2.0 2.0 0.00 0.00 0.00 52 1011.0
20260903024524 90 110 0.0 4.0 0.00 0.00 0.00 52 1010.8
20260903024024 90 117 4.0 7.0 0.00 0.00 0.00 52 1010.7
20260903023024 91 97 0.0 3.0 0.00 0.00 0.00 52 1010.5
20260903022524 91 117 1.0 3.0 0.00 0.00 0.00 52 1010.4
20260903022024 91 113 0.0 3.0 0.00 0.00 0.00 52 1010.4
20260903021524 91 157 2.0 3.0 0.00 0.00 0.00 51 1010.3
20260903021024 92 123 2.0 5.0 0.00 0.00 0.00 51 1010.2
20260903020024 92 110 1.0 2.0 0.00 0.00 0.00 51 1010.1
20260903015524 92 148 1.0 3.0 0.00 0.00 0.00 49 1010.0
20260903015023 92 148 1.0 3.0 0.00 0.00 0.00 49 1009.9
20260903014524 93 50 0.0 7.0 0.00 0.00 0.00 49 1009.7
20260903014024 93 115 6.0 7.0 0.00 0.00 0.00 48 1009.7
20260903013524 93 319 1.0 2.0 0.00 0.00 0.00 47 1009.5
20260903013024 93 52 0.0 1.0 0.00 0.00 0.00 47 1009.5
20260903012023 94 87 0.0 0.0 0.00 0.00 0.00 46 1009.5
20260903011523 94 87 0.0 3.0 0.00 0.00 0.00 46 1009.5
20260903011024 94 15 0.0 3.0 0.00 0.00 0.00 46 1009.6
20260903010523 95 53 1.0 3.0 0.00 0.00 0.00 45 1009.6
20260903005523 96 57 1.0 2.0 0.00 0.00 0.00 44 1009.5
20260903005023 96 46 2.0 4.0 0.00 0.00 0.00 44 1009.5
20260903004523 97 107 1.0 4.0 0.00 0.00 0.00 43 1009.6
20260903003523 98 161 2.0 6.0 0.00 0.00 0.00 41 1009.6
20260903003023 99 355 1.0 6.0 0.00 0.00 0.00 41 1009.7
20260903002523 99 148 0.0 0.0 0.00 0.00 0.00 40 1009.5
20260903002023 99 148 0.0 0.0 0.00 0.00 0.00 40 1009.4
20260903001523 100 148 0.0 2.0 0.00 0.00 0.00 39 1009.5
20260903001022 100 148 2.0 2.0 0.00 0.00 0.00 39 1009.5
20260903000522 100 138 1.0 2.0 0.00 0.00 0.00 39 1009.4
20260903000022 100 138 0.0 2.0 0.00 0.00 0.00 39 1009.4
20260902235022 101 202 0.0 3.0 0.00 0.00 0.00 39 1009.5
20260902233522 101 276 0.0 2.0 0.00 0.00 0.00 39 1009.5
20260902233022 101 304 1.0 2.0 0.00 0.00 0.00 40 1009.5
20260902232522 101 250 1.0 2.0 0.00 0.00 0.00 40 1009.5
20260902232022 100 190 2.0 2.0 0.00 0.00 0.00 40 1009.5
20260902230522 99 191 2.0 4.0 0.00 0.00 0.00 42 1009.3
20260902230022 99 269 1.0 2.0 0.00 0.00 0.00 41 1009.3
20260902225021 98 304 1.0 2.0 0.00 0.00 0.00 43 1009.4
20260902224521 98 296 0.0 2.0 0.00 0.00 0.00 43 1009.4
20260902224021 98 272 1.0 4.0 0.00 0.00 0.00 42 1009.4
20260902223521 98 232 1.0 4.0 0.00 0.00 0.00 43 1009.4
20260902223021 98 260 2.0 4.0 0.00 0.00 0.00 42 1009.4
20260902222521 98 331 1.0 3.0 0.00 0.00 0.00 43 1009.4
20260902222021 99 285 2.0 3.0 0.00 0.00 0.00 42 1009.3
20260902221521 99 148 1.0 4.0 0.00 0.00 0.00 43 1009.4
20260902221021 99 268 2.0 4.0 0.00 0.00 0.00 42 1009.4
20260902220521 98 355 2.0 4.0 0.00 0.00 0.00 43 1009.4
20260902220021 98 319 0.0 3.0 0.00 0.00 0.00 43 1009.6
20260902215521 98 329 1.0 5.0 0.00 0.00 0.00 43 1009.6
20260902215021 98 299 3.0 7.0 0.00 0.00 0.00 43 1009.6
20260902214521 98 303 4.0 7.0 0.00 0.00 0.00 42 1009.7
20260902213520 98 227 1.0 2.0 0.00 0.00 0.00 45 1009.7
20260902213020 98 148 1.0 4.0 0.00 0.00 0.00 45 1009.8
20260902212020 97 159 0.0 7.0 0.00 0.00 0.00 45 1009.9
20260902211520 97 95 3.0 7.0 0.00 0.00 0.00 45 1010.0
20260902211020 97 115 3.0 4.0 0.00 0.00 0.00 45 1010.0
20260902210520 98 102 1.0 4.0 0.00 0.00 0.00 45 1010.1
20260902210020 98 152 4.0 4.0 0.00 0.00 0.00 45 1010.1
20260902205520 98 300 1.0 4.0 0.00 0.00 0.00 45 1010.3
20260902205020 98 203 2.0 4.0 0.00 0.00 0.00 45 1010.5
20260902204520 98 178 2.0 4.0 0.00 0.00 0.00 45 1010.5
20260902204020 98 209 1.0 4.0 0.00 0.00 0.00 46 1010.6
20260902203520 98 246 2.0 4.0 0.00 0.00 0.00 46 1010.7
20260902203020 98 60 1.0 6.0 0.00 0.00 0.00 46 1010.7
20260902202520 98 252 3.0 7.0 0.00 0.00 0.00 46 1010.8
20260902202020 97 309 2.0 7.0 0.00 0.00 0.00 46 1010.7
20260902201519 97 145 2.0 7.0 0.00 0.00 0.00 47 1010.8
20260902201019 96 113 2.0 2.0 0.00 0.00 0.00 47 1010.8
20260902200520 96 108 0.0 3.0 0.00 0.00 0.00 46 1010.9
20260902200019 96 92 3.0 3.0 0.00 0.00 0.00 46 1011.0
20260902194519 96 107 1.0 4.0 0.00 0.00 0.00 47 1011.2
20260902194019 96 107 2.0 4.0 0.00 0.00 0.00 48 1011.3
20260902193019 96 90 1.0 6.0 0.00 0.00 0.00 49 1011.4
20260902192519 96 286 2.0 6.0 0.00 0.00 0.00 48 1011.6
20260902192019 96 145 1.0 3.0 0.00 0.00 0.00 48 1011.6
20260902191519 96 187 2.0 3.0 0.00 0.00 0.00 48 1011.7
20260902190018 97 131 3.0 4.0 0.00 0.00 0.00 47 1012.0
20260902185518 97 218 1.0 4.0 0.00 0.00 0.00 47 1012.1
20260902185019 97 298 2.0 6.0 0.00 0.00 0.00 46 1012.1
20260902184519 97 124 3.0 6.0 0.00 0.00 0.00 46 1012.2
20260902183518 97 269 1.0 4.0 0.00 0.00 0.00 46 1012.4
20260902183018 97 321 3.0 7.0 0.00 0.00 0.00 47 1012.4
20260902182519 97 289 3.0 8.0 0.00 0.00 0.00 47 1012.5
20260902182019 97 319 2.0 8.0 0.00 0.00 0.00 47 1012.6
20260902181518 97 347 4.0 4.0 0.00 0.00 0.00 48 1012.8
20260902181018 96 326 4.0 6.0 0.00 0.00 0.00 48 1012.8